WetterOnline ( http://www.wetteronline.ch )

Wetter aktuell Stuttgart

Aktuelles Wetter: Schnarrenberg/Stuttgart (315m)

6-stündlich | Neueste Meldungen
Ortszeit Temperatur Wetter
Mo, 21.01. 1:00 -1.9° C bedeckt
So, 20.01. 19:00 -1.5° C bedeckt
So, 20.01. 13:00 -2.2° C bedeckt
So, 20.01. 7:00 -6.0° C bedeckt
So, 20.01. 1:00 -5.8° C wolkenlos
Sa, 19.01. 19:00 -3.6° C wolkenlos
Sa, 19.01. 13:00 -2.2° C bedeckt
Sa, 19.01. 7:00 -4.0° C bewölkt
Ortszeit Temperatur Wetter
Mo, 21.01. 1:30 -2.3° C wolkig
Mo, 21.01. 1:20 -2.3° C wolkig
Mo, 21.01. 1:10 -2.2° C bewölkt
Mo, 21.01. 1:00 -1.9° C bedeckt
Mo, 21.01. 0:40 -1.9° C bedeckt
Mo, 21.01. 0:30 -1.8° C bedeckt
Mo, 21.01. 0:00 -1.8° C bedeckt
So, 20.01. 23:30 -1.8° C bedeckt
So, 20.01. 23:00 -1.8° C bedeckt
So, 20.01. 22:30 -1.7° C bedeckt
Ortszeit Relative Feuchte Sichtweite
Mo, 21.01. 1:00 82% 9 km
So, 20.01. 19:00 81% 9 km
So, 20.01. 13:00 72% 16 km
So, 20.01. 7:00 87% 9 km
So, 20.01. 1:00 85% 7 km
Sa, 19.01. 19:00 77% 19 km
Sa, 19.01. 13:00 74% 26 km
Sa, 19.01. 7:00 85% 30 km
Ortszeit Relative Feuchte Sichtweite
Mo, 21.01. 1:30 84% 8 km
Mo, 21.01. 1:20 84% -
Mo, 21.01. 1:10 83% -
Mo, 21.01. 1:00 82% 9 km
Mo, 21.01. 0:40 82% -
Mo, 21.01. 0:30 82% 9 km
Mo, 21.01. 0:00 82% 9 km
So, 20.01. 23:30 82% 8 km
So, 20.01. 23:00 81% 9 km
So, 20.01. 22:30 82% 9 km
Ortszeit Niederschlagsmenge Niederschlagsart
Mo, 21.01. 1:00 0.0 l/m2 in 6 Std. -
So, 20.01. 19:00 0.1 l/m2 in 12 Std. -
So, 20.01. 13:00 0.1 l/m2 in 6 Std. Schnee
So, 20.01. 7:00 0.0 l/m2 in 12 Std. -
So, 20.01. 1:00 0.0 l/m2 in 6 Std. -
Sa, 19.01. 19:00 0.0 l/m2 in 12 Std. -
Sa, 19.01. 13:00 0.0 l/m2 in 6 Std. -
Sa, 19.01. 7:00 0.0 l/m2 in 12 Std. -
Ortszeit Niederschlagsmenge Niederschlagsart
Mo, 21.01. 1:30 0.0 l/m2 in 1 Std. -
Mo, 21.01. 1:20 keine Meldung -
Mo, 21.01. 1:10 keine Meldung -
Mo, 21.01. 1:00 0.0 l/m2 in 1 Std. -
Mo, 21.01. 0:40 keine Meldung -
Mo, 21.01. 0:30 0.0 l/m2 in 1 Std. -
Mo, 21.01. 0:00 0.0 l/m2 in 1 Std. -
So, 20.01. 23:30 0.0 l/m2 in 1 Std. -
So, 20.01. 23:00 0.0 l/m2 in 1 Std. -
So, 20.01. 22:30 0.0 l/m2 in 1 Std. -
Ortszeit Stärke Spitze Richtung
km/h Bft. km/h Grad Sektor
Mo, 21.01. 1:00 6 1 13 10° N
So, 20.01. 19:00 6 1 11 330° NW
So, 20.01. 13:00 4 1 18 80° O
So, 20.01. 7:00 7 2 18 130° SO
So, 20.01. 1:00 9 2 22 130° SO
Sa, 19.01. 19:00 9 2 22 130° SO
Sa, 19.01. 13:00 13 3 26 140° SO
Sa, 19.01. 7:00 9 2 17 100° O
Ortszeit Stärke Spitze Richtung
km/h Bft. km/h Grad Sektor
Mo, 21.01. 1:30 6 1 7 20° N
Mo, 21.01. 1:20 6 1 - 20° N
Mo, 21.01. 1:10 4 1 - 20° N
Mo, 21.01. 1:00 6 1 7 10° N
Mo, 21.01. 0:40 4 1 - 20° N
Mo, 21.01. 0:30 6 1 7 20° N
Mo, 21.01. 0:00 6 1 9 20° N
So, 20.01. 23:30 4 1 11 20° N
So, 20.01. 23:00 7 2 11 20° N
So, 20.01. 22:30 7 2 11 10° N
Ortszeit Untergrenze Bedeckung Gattung
total tief tief mittel hoch
Mo, 21.01. 1:00 870 m 8/8 8/8 - - -
So, 20.01. 19:00 960 m 8/8 8/8 - - -
So, 20.01. 13:00 1140 m 8/8 8/8 - - -
So, 20.01. 7:00 1500 m 8/8 8/8 - - -
So, 20.01. 1:00 - 0/8 0/8 - - -
Sa, 19.01. 19:00 - 0/8 0/8 - - -
Sa, 19.01. 13:00 510 m 8/8 8/8 - - -
Sa, 19.01. 7:00 3900 m 7/8 7/8 - - -
Ortszeit Bedeckungsgrad in Achtel und Wolkenuntergrenze
Mo, 21.01. 1:30 1(990m) 6(1500m)
Mo, 21.01. 1:20 1(990m) 6(1500m)
Mo, 21.01. 1:10 7(1500m)
Mo, 21.01. 1:00 1(870m) 8(1500m)
Mo, 21.01. 0:40 2(870m) 8(1500m)
Mo, 21.01. 0:30 3(870m) 8(1500m)
Mo, 21.01. 0:00 2(870m) 8(1500m)
So, 20.01. 23:30 4(900m) 4(1170m) 8(1500m)
So, 20.01. 23:00 7(900m) 8(1500m) 8(1500m)
So, 20.01. 22:30 5(900m) 6(1170m) 8(1500m)
Ortszeit Luftdruck NN (hPa) Tendenz (hPa in 3 Std.)
Mo, 21.01. 1:00 1021 + 0,9
So, 20.01. 19:00 1018 + 1,4
So, 20.01. 13:00 1017 + 0,7
So, 20.01. 7:00 1015 - 0,3
So, 20.01. 1:00 1016 - 0,4
Sa, 19.01. 19:00 1016 - 0,6
Sa, 19.01. 13:00 1018 - 1,0
Sa, 19.01. 7:00 1019 - 0,9
Ortszeit Luftdruck NN (hPa) Tendenz (hPa in 3 Std.)
Mo, 21.01. 1:30 1021 + 0,7
Mo, 21.01. 1:20 1021 keine Meldung
Mo, 21.01. 1:10 1021 keine Meldung
Mo, 21.01. 1:00 1021 + 0,9
Mo, 21.01. 0:40 1021 keine Meldung
Mo, 21.01. 0:30 1021 + 1,1
Mo, 21.01. 0:00 1021 + 1,3
So, 20.01. 23:30 1021 + 1,3
So, 20.01. 23:00 1020 + 1,3
So, 20.01. 22:30 1020 + 1,3
Ortszeit Schneehöhe (cm)
Mo, 21.01. 1:00 1
So, 20.01. 19:00 1
So, 20.01. 13:00 1
So, 20.01. 7:00 1
So, 20.01. 1:00 1
Sa, 19.01. 19:00 1
Sa, 19.01. 13:00 1
Sa, 19.01. 7:00 1
Ortszeit Schneehöhe (cm)
Mo, 21.01. 1:30 1
Mo, 21.01. 1:20 1
Mo, 21.01. 1:10 1
Mo, 21.01. 1:00 1
Mo, 21.01. 0:40 1
Mo, 21.01. 0:30 1
Mo, 21.01. 0:00 1
So, 20.01. 23:30 1
So, 20.01. 23:00 1
So, 20.01. 22:30 1
Link zu dieser Seite / Seite empfehlen

Das Wetter in ...